"TOA5","MOW","CPU:UNC_MeetingWaters","DataHourly"
"TIMESTAMP","SondeTempC","SpCond","DOSat","DOmg","pH","Turb","BattVolt_Min"
"TS","","","","","","",""
"","Smp","Smp","Smp","Smp","Smp","Smp","Min"
"2009-03-01 00:00:00",10.029999733,0.118000000715,101.199996948,26.1000003815,6.38999986649,122.400001526,12.6300001144
"2009-03-01 01:00:00",9.47000026703,0.104000002146,101.5,23.7000007629,6.42999982834,196.199996948,12.6300001144
"2009-03-01 02:00:00",9.28999996185,0.128999993205,99.6999969482,26.3999996185,6.38000011444,155.399993896,12.5900001526
"2009-03-01 03:00:00",9.31999969482,0.144999995828,98.5,20.5,6.48999977112,90.8000030518,12.6199998856
"2009-03-01 04:00:00",9.35999965668,0.109999999404,97.9000015259,11.1000003815,6.65999984741,50.7000007629,12.6099996567
"2009-03-01 05:00:00",9.23999977112,0.0109999999404,97.5,4.30000019073,6.78000020981,38.0,12.6099996567
"2009-03-01 06:00:00",8.34000015259,0.00700000021607,97.4000015259,-1.0,6.88000011444,34.9000015259,12.6000003815
"2009-03-01 07:00:00",6.11000013351,0.00700000021607,98.8000030518,-7.09999990463,6.98999977112,31.8999996185,12.5900001526
"2009-03-01 08:00:00",5.55999994278,0.00700000021607,99.4000015259,-9.0,7.01999998093,31.1000003815,12.5799999237
"2009-03-01 09:00:00",4.84999990463,0.00700000021607,99.5,-8.19999980927,7.01000022888,24.2999992371,12.5799999237
"2009-03-01 10:00:00",4.53000020981,0.00600000005215,101.199996948,-5.90000009537,6.96999979019,20.7000007629,12.5900001526
"2009-03-01 11:00:00",4.15000009537,0.00600000005215,99.1999969482,-4.19999980927,6.94000005722,19.2000007629,12.5799999237
"2009-03-01 12:00:00",4.19999980927,0.00600000005215,97.5,-4.0,6.92999982834,19.7000007629,12.5600004196
"2009-03-01 13:00:00",8.27000045776,0.272000014782,99.0999984741,-3.29999995232,6.92000007629,40.5,12.5900001526
"2009-03-01 14:00:00",8.47999954224,0.182999998331,100.0,-2.70000004768,6.90999984741,36.9000015259,12.6000003815
"2009-03-01 15:00:00",8.31000041962,0.148000001907,100.800003052,-5.30000019073,6.96000003815,117.0,12.6099996567
"2009-03-01 16:00:00",7.15000009537,0.0810000002384,102.900001526,-8.60000038147,7.01999998093,231.100006104,12.8500003815
"2009-03-01 17:00:00",6.28999996185,0.0949999988079,103.0,-5.0,6.94999980927,251.300003052,12.6199998856
"2009-03-01 18:00:00",4.88000011444,0.0659999996424,103.900001526,-3.40000009537,6.92000007629,1262.0,12.6199998856
"2009-03-01 19:00:00",5.67000007629,0.0900000035763,103.099998474,-0.600000023842,6.86999988556,373.399993896,12.6599998474
"2009-03-01 20:00:00",5.42000007629,0.0790000036359,103.699996948,2.0,6.82000017166,308.600006104,12.5799999237
"2009-03-01 21:00:00",5.51999998093,0.0890000015497,103.0,2.70000004768,6.80999994278,270.799987793,12.5799999237
"2009-03-01 22:00:00",6.09000015259,0.112999998033,102.599998474,6.30000019073,6.73999977112,186.199996948,12.5699996948
"2009-03-01 23:00:00",6.32999992371,0.123999997973,102.0,6.80000019073,6.73000001907,180.800003052,12.5699996948
"2009-03-02 00:00:00",6.94000005722,0.167999997735,101.099998474,7.30000019073,6.73000001907,114.599998474,12.5600004196
"2009-03-02 01:00:00",7.34000015259,0.196999996901,100.599998474,6.5,6.73999977112,90.6999969482,12.5600004196
"2009-03-02 02:00:00",7.55999994278,0.201000005007,100.099998474,5.69999980927,6.76000022888,73.0,12.5600004196
"2009-03-02 03:00:00",7.57000017166,0.20000000298,99.9000015259,4.69999980927,6.76999998093,62.7999992371,12.5600004196
"2009-03-02 04:00:00",7.59999990463,0.197999998927,99.8000030518,3.29999995232,6.80000019073,52.9000015259,12.5500001907
"2009-03-02 05:00:00",7.21000003815,0.483999997377,99.4000015259,3.70000004768,6.78999996185,57.5,12.5500001907
"2009-03-02 06:00:00",6.88999986649,0.615000009537,99.5,0.600000023842,6.84999990463,52.2000007629,12.5500001907
"2009-03-02 07:00:00",6.69999980927,3.6970000267,99.6999969482,5.80000019073,6.75,51.7000007629,12.5500001907
"2009-03-02 08:00:00",6.90000009537,3.31699991226,99.9000015259,5.19999980927,6.76000022888,47.0999984741,12.5399999619
"2009-03-02 09:00:00",7.01000022888,4.52099990845,100.099998474,4.09999990463,6.78000020981,48.5,12.5200004578
"2009-03-02 10:00:00",7.03000020981,4.77199983597,100.099998474,4.09999990463,6.78999996185,44.7000007629,12.5399999619
"2009-03-02 11:00:00",6.90999984741,3.96799993515,100.099998474,2.79999995232,6.80999994278,46.9000015259,12.529999733
"2009-03-02 12:00:00",6.82000017166,3.73799991608,100.300003052,1.89999997616,6.82000017166,52.7999992371,12.5200004578
"2009-03-02 13:00:00",6.88000011444,2.79200005531,101.599998474,0.0,6.86000013351,42.7999992371,12.5200004578
"2009-03-02 14:00:00",7.01999998093,2.27099990845,102.199996948,-2.5,6.90000009537,39.7000007629,12.5399999619
"2009-03-02 15:00:00",7.40000009537,2.13199996948,103.900001526,0.5,6.84999990463,52.9000015259,12.5699996948
"2009-03-02 16:00:00",7.98000001907,2.04299998283,104.599998474,-0.699999988079,6.86999988556,39.7000007629,12.720000267
"2009-03-02 17:00:00",8.39999961853,2.06200003624,104.699996948,0.20000000298,6.86000013351,34.4000015259,12.9200000763
"2009-03-02 18:00:00",8.72000026703,1.89100003242,104.900001526,-1.60000002384,6.88999986649,36.4000015259,13.1000003815
"2009-03-02 19:00:00",8.60000038147,1.32299995422,104.0,-3.70000004768,6.92999982834,31.7999992371,13.220000267
"2009-03-02 20:00:00",8.34000015259,0.878000020981,102.900001526,-6.40000009537,6.98000001907,59.9000015259,13.1800003052
"2009-03-02 21:00:00",8.10000038147,0.68599998951,102.400001526,-8.89999961853,7.01999998093,28.7999992371,13.0799999237
"2009-03-02 22:00:00",7.75,0.368000000715,101.099998474,-11.5,7.07000017166,25.3999996185,12.9099998474
"2009-03-02 23:00:00",7.36999988556,0.330000013113,99.0,-12.3000001907,7.07999992371,23.3999996185,12.8199996948
"2009-03-03 00:00:00",7.03999996185,0.317999988794,98.6999969482,-22.6000003815,7.26999998093,23.1000003815,12.7600002289
"2009-03-03 01:00:00",6.59999990463,0.0439999997616,98.9000015259,-22.7000007629,7.26999998093,22.2000007629,12.7100000381
"2009-03-03 02:00:00",6.13000011444,0.0170000009239,99.3000030518,-24.0,7.30000019073,20.3999996185,12.6499996185
"2009-03-03 03:00:00",4.78000020981,0.0130000002682,100.099998474,-24.2999992371,7.30999994278,22.7999992371,12.5900001526
"2009-03-03 04:00:00",2.38000011444,0.00899999961257,104.099998474,-23.7999992371,7.30000019073,21.3999996185,12.5399999619
"2009-03-03 05:00:00",0.280000001192,0.00499999988824,106.800003052,-23.6000003815,7.30000019073,35.7000007629,12.5
"2009-03-03 06:00:00",-0.140000000596,0.00300000002608,106.900001526,2.5,6.80999994278,17.2999992371,12.4600000381
"2009-03-03 07:00:00",-0.670000016689,0.00300000002608,106.900001526,7.19999980927,6.71999979019,15.3000001907,12.4799995422
"2009-03-03 08:00:00",-1.75999999046,0.00200000009499,108.199996948,12.0,6.63000011444,14.0,12.470000267
"2009-03-03 09:00:00",-2.5,0.00200000009499,108.900001526,12.3000001907,6.61999988556,14.6000003815,12.4600000381
"2009-03-03 10:00:00",-2.84999990463,0.00200000009499,108.800003052,13.3999996185,6.59999990463,13.3999996185,12.4600000381
"2009-03-03 11:00:00",-2.59999990463,0.00200000009499,108.5,13.3000001907,6.59999990463,12.5,12.4600000381
"2009-03-03 12:00:00",-2.80999994278,0.00200000009499,109.5,13.5,6.59999990463,14.0,12.4600000381
"2009-03-03 13:00:00",-1.75999999046,0.00200000009499,111.5,11.3000001907,6.63999986649,12.0,12.6599998474
"2009-03-03 14:00:00",-0.259999990463,0.00800000037998,114.099998474,7.5,6.71999979019,11.6999998093,13.1499996185
"2009-03-03 15:00:00",5.92000007629,0.0240000002086,108.800003052,-29.6000003815,7.40000009537,12.8000001907,13.5799999237
"2009-03-03 16:00:00",2.76999998093,0.0149999996647,116.699996948,-27.2999992371,7.36000013351,34.4000015259,13.5600004196
"2009-03-03 17:00:00",4.71999979019,0.00999999977648,117.800003052,-3.40000009537,6.92000007629,87.6999969482,13.8900003433
"2009-03-03 18:00:00",5.67000007629,0.00499999988824,116.099998474,9.30000019073,6.69000005722,87.4000015259,13.6899995804
"2009-03-03 19:00:00",5.46999979019,0.00200000009499,114.300003052,16.6000003815,6.55000019073,107.599998474,13.8199996948
"2009-03-03 20:00:00",5.15000009537,0.0010000000475,111.400001526,21.1000003815,6.46999979019,173.199996948,13.6199998856
"2009-03-03 21:00:00",2.93000006676,0.0010000000475,109.099998474,10.6999998093,6.65999984741,320.799987793,13.2100000381
"2009-03-03 22:00:00",2.43000006676,0.0010000000475,106.699996948,8.0,6.71000003815,337.299987793,13.029999733
"2009-03-03 23:00:00",1.53999996185,0.0010000000475,105.900001526,9.5,6.67999982834,282.799987793,12.9600000381
"2009-03-04 00:00:00",0.839999973774,0.0010000000475,104.800003052,9.39999961853,6.67999982834,837.0,12.9200000763
"2009-03-04 01:00:00",-0.289999991655,0.0010000000475,104.699996948,13.1000003815,6.61000013351,1078.0,12.8999996185
"2009-03-04 02:00:00",-1.12999999523,0.0010000000475,104.5,20.2000007629,6.48000001907,1086.0,12.8500003815
"2009-03-04 03:00:00",-1.71000003815,0.0010000000475,103.199996948,22.2000007629,6.44000005722,742.5,12.8500003815
"2009-03-04 04:00:00",-2.04999995232,0.0010000000475,106.199996948,22.7000007629,6.42999982834,426.899993896,12.8199996948
"2009-03-04 05:00:00",-2.47000002861,0.0010000000475,109.800003052,23.0,6.42000007629,215.0,12.8100004196
"2009-03-04 06:00:00",-2.5,0.0010000000475,109.699996948,22.7999992371,6.42000007629,129.800003052,12.7899999619
"2009-03-04 07:00:00",-3.06999993324,0.0010000000475,110.199996948,23.0,6.42000007629,70.0999984741,12.779999733
"2009-03-04 08:00:00",-3.05999994278,0.0010000000475,110.0,23.2000007629,6.42000007629,36.7000007629,12.7600002289
"2009-03-04 09:00:00",-3.27999997139,0.00200000009499,109.900001526,23.6000003815,6.40999984741,26.8999996185,12.75
"2009-03-04 10:00:00",-3.6400001049,0.00200000009499,110.199996948,23.7999992371,6.40000009537,19.7999992371,12.7399997711
"2009-03-04 11:00:00",-4.53000020981,0.0010000000475,110.099998474,24.3999996185,6.38999986649,15.6000003815,12.7399997711
"2009-03-04 12:00:00",-3.15000009537,0.0010000000475,108.400001526,23.6000003815,6.40999984741,13.0,12.75
"2009-03-04 13:00:00",-0.959999978542,0.0010000000475,108.300003052,18.7000007629,6.5,12.6999998093,13.1400003433
"2009-03-04 14:00:00",1.39999997616,0.0,109.199996948,1.29999995232,6.82999992371,11.3000001907,13.5699996948
"2009-03-04 15:00:00",3.8900001049,0.0,112.900001526,6.5,6.73999977112,11.8000001907,13.6800003052
"2009-03-04 16:00:00",7.28000020981,0.0,112.300003052,13.3999996185,6.61000013351,11.3999996185,13.7399997711
"2009-03-04 17:00:00",9.68999958038,0.0,111.199996948,56.7000007629,5.84000015259,12.8000001907,13.6800003052
"2009-03-04 18:00:00",10.029999733,0.0,111.800003052,54.2000007629,5.88000011444,13.3999996185,13.6499996185
"2009-03-04 19:00:00",9.84000015259,0.0,111.099998474,55.7999992371,5.84999990463,34.9000015259,13.6000003815
"2009-03-04 20:00:00",8.80000019073,0.0,109.400001526,58.5,5.80000019073,67.0999984741,13.5600004196
"2009-03-04 21:00:00",7.57000017166,0.0,107.300003052,57.7999992371,5.80999994278,104.199996948,13.2100000381
"2009-03-04 22:00:00",6.19999980927,0.0,105.099998474,55.2999992371,5.84999990463,220.899993896,13.0399999619
"2009-03-04 23:00:00",4.28000020981,0.0,103.0,51.7000007629,5.90999984741,290.899993896,12.9499998093
"2009-03-05 00:00:00",3.1400001049,0.0,103.800003052,47.5999984741,5.98000001907,293.700012207,12.8999996185
"2009-03-05 01:00:00",2.20000004768,0.0010000000475,103.199996948,43.0999984741,6.05999994278,273.100006104,12.8800001144
"2009-03-05 02:00:00",1.27999997139,0.0010000000475,104.900001526,39.5999984741,6.11999988556,252.100006104,12.8400001526
"2009-03-05 03:00:00",1.39999997616,0.0010000000475,102.0,37.5,6.15999984741,259.399993896,12.8299999237
"2009-03-05 04:00:00",0.639999985695,0.0010000000475,102.300003052,37.0,6.17000007629,267.600006104,12.8000001907
"2009-03-05 05:00:00",1.33000004292,0.0010000000475,102.699996948,35.0,6.19999980927,238.899993896,12.7899999619
"2009-03-05 06:00:00",0.550000011921,0.00200000009499,103.800003052,33.2000007629,6.23999977112,187.0,12.7700004578
"2009-03-05 07:00:00",0.579999983311,0.00200000009499,102.800003052,32.5999984741,6.25,174.800003052,12.7700004578
"2009-03-05 08:00:00",0.280000001192,0.00200000009499,103.400001526,31.0,6.28000020981,120.599998474,12.75
"2009-03-05 09:00:00",0.209999993443,0.00200000009499,103.199996948,29.2999992371,6.30999994278,75.5,12.7299995422
"2009-03-05 10:00:00",-0.850000023842,0.00300000002608,104.0,26.8999996185,6.34999990463,155.100006104,12.720000267
"2009-03-05 11:00:00",-0.560000002384,0.00300000002608,103.300003052,20.8999996185,6.46000003815,31.7999992371,12.7299995422
"2009-03-05 12:00:00",0.209999993443,0.00300000002608,103.599998474,17.8999996185,6.51999998093,6.59999990463,12.6899995804
"2009-03-05 13:00:00",0.209999993443,0.00300000002608,103.599998474,17.8999996185,6.51999998093,6.59999990463,13.1199998856
"2009-03-05 14:00:00",5.05999994278,0.00200000009499,108.5,18.7999992371,6.51000022888,27.3999996185,13.6000003815
"2009-03-05 15:00:00",5.05999994278,0.00200000009499,108.5,18.7999992371,6.51000022888,27.3999996185,13.5500001907
"2009-03-05 16:00:00",12.4899997711,0.0,110.199996948,65.0999984741,5.69999980927,17.8999996185,13.6999998093
"2009-03-05 17:00:00",13.9099998474,0.0,109.800003052,61.7000007629,5.76000022888,14.8000001907,13.4600000381
"2009-03-05 18:00:00",15.3599996567,0.0,108.900001526,62.2999992371,5.76000022888,14.0,13.4600000381
"2009-03-05 19:00:00",14.0600004196,0.0,109.599998474,60.7000007629,5.78000020981,16.5,13.3999996185
"2009-03-05 20:00:00",12.6700000763,0.0,108.300003052,59.2999992371,5.80000019073,35.4000015259,13.3999996185
"2009-03-05 21:00:00",11.4099998474,0.0,105.300003052,57.5999984741,5.82999992371,51.7000007629,13.1800003052
"2009-03-05 22:00:00",9.96000003815,0.0,102.300003052,51.5999984741,5.92999982834,78.1999969482,13.029999733
"2009-03-05 23:00:00",7.94000005722,0.0,102.300003052,53.4000015259,5.88999986649,136.100006104,12.9399995804
"2009-03-06 00:00:00",7.07000017166,0.0,99.5,50.9000015259,5.92999982834,165.600006104,12.9099998474
"2009-03-06 01:00:00",6.30999994278,0.0,99.9000015259,44.7999992371,6.03999996185,193.199996948,12.8800001144
"2009-03-06 02:00:00",5.82999992371,0.0,101.099998474,44.7999992371,6.03999996185,155.0,12.8599996567
"2009-03-06 03:00:00",5.46999979019,0.0,102.5,42.7999992371,6.07000017166,137.800003052,12.8400001526
"2009-03-06 04:00:00",6.09000015259,0.0,100.0,43.2000007629,6.07000017166,152.399993896,12.8199996948
"2009-03-06 05:00:00",4.84000015259,0.0,102.5,42.7000007629,6.07000017166,110.099998474,12.8100004196
"2009-03-06 06:00:00",4.59999990463,0.0,102.099998474,37.4000015259,6.17000007629,64.3000030518,12.7899999619
"2009-03-06 07:00:00",4.21999979019,0.0,101.800003052,34.2999992371,6.23000001907,41.9000015259,12.7700004578
"2009-03-06 08:00:00",4.13999986649,0.0010000000475,101.099998474,33.7999992371,6.23999977112,30.5,12.7600002289
"2009-03-06 09:00:00",4.01999998093,0.0010000000475,100.400001526,31.5,6.28000020981,21.6000003815,12.75
"2009-03-06 10:00:00",3.63000011444,0.0010000000475,100.099998474,31.7999992371,6.26999998093,18.1000003815,12.7399997711
"2009-03-06 11:00:00",3.40000009537,0.0010000000475,102.5,30.5,6.28999996185,19.2999992371,12.7299995422
"2009-03-06 12:00:00",4.21000003815,0.0010000000475,104.800003052,26.7999992371,6.36000013351,20.1000003815,12.7399997711
"2009-03-06 13:00:00",8.13000011444,0.0010000000475,106.0,30.2000007629,6.30999994278,19.5,13.0600004196
"2009-03-06 14:00:00",11.0699996948,0.0,108.099998474,43.5999984741,6.07999992371,22.6000003815,13.4799995422
"2009-03-06 15:00:00",13.8800001144,0.0,109.599998474,50.0999984741,5.96999979019,24.7000007629,14.1400003433
"2009-03-06 16:00:00",16.9300003052,0.0,110.300003052,56.7999992371,5.86000013351,24.5,14.0799999237
"2009-03-06 17:00:00",18.9799995422,0.0,111.699996948,69.1999969482,5.65000009537,26.1000003815,13.3000001907
"2009-03-06 18:00:00",20.1100006104,0.0,111.199996948,70.5,5.63999986649,29.8999996185,13.279999733
"2009-03-06 19:00:00",18.2299995422,0.0,112.599998474,68.5999984741,5.65999984741,43.2999992371,13.2700004578
"2009-03-06 20:00:00",17.5100002289,0.0,108.099998474,67.1999969482,5.67999982834,49.2999992371,13.25
"2009-03-06 21:00:00",16.2199993134,0.0,103.099998474,64.5999984741,5.71999979019,51.0999984741,13.1800003052
"2009-03-06 22:00:00",15.220000267,0.0,99.5,61.9000015259,5.76999998093,37.0999984741,13.0
"2009-03-06 23:00:00",13.4499998093,0.0,96.8000030518,56.5999984741,5.84999990463,31.0,12.970000267
"2009-03-07 00:00:00",12.6999998093,0.0,96.6999969482,45.5999984741,6.05000019073,75.1999969482,12.9200000763
"2009-03-07 01:00:00",12.779999733,0.0,94.6999969482,50.5999984741,5.96000003815,277.399993896,12.9099998474
"2009-03-07 02:00:00",12.5900001526,0.0,95.8000030518,46.7999992371,6.01999998093,318.0,12.8800001144
"2009-03-07 03:00:00",11.7399997711,0.0,98.0,50.5999984741,5.94999980927,183.899993896,12.8599996567
"2009-03-07 04:00:00",11.1000003815,0.0,97.6999969482,50.5,5.94999980927,86.5999984741,12.8400001526
"2009-03-07 05:00:00",10.5100002289,0.0,98.8000030518,39.5999984741,6.15000009537,44.2000007629,12.8199996948
"2009-03-07 06:00:00",9.89999961853,0.0010000000475,99.8000030518,39.2000007629,6.15000009537,33.2000007629,12.8100004196
"2009-03-07 07:00:00",9.07999992371,0.0010000000475,100.400001526,53.0,5.90000009537,31.2000007629,12.8000001907
"2009-03-07 08:00:00",9.02999973297,0.0010000000475,99.9000015259,52.0999984741,5.92000007629,28.7999992371,12.779999733
"2009-03-07 09:00:00",8.57999992371,0.0010000000475,101.300003052,41.0,6.11999988556,26.7000007629,12.7600002289
"2009-03-07 10:00:00",7.92000007629,0.0010000000475,102.400001526,38.4000015259,6.15999984741,28.3999996185,12.75
"2009-03-07 11:00:00",7.65999984741,0.0010000000475,103.0,35.2999992371,6.21999979019,29.1000003815,12.75
"2009-03-07 12:00:00",8.38000011444,0.0010000000475,105.599998474,33.7999992371,6.25,32.0,12.7600002289
"2009-03-07 13:00:00",10.25,0.0010000000475,107.099998474,35.2999992371,6.21999979019,29.7000007629,13.0699996948
"2009-03-07 14:00:00",13.1800003052,0.0010000000475,109.0,44.5999984741,6.07000017166,32.2999992371,13.4200000763
"2009-03-07 15:00:00",16.2399997711,0.0,112.400001526,53.5999984741,5.92000007629,30.8999996185,14.0
"2009-03-07 16:00:00",19.6000003815,0.0,112.0,58.2999992371,5.84999990463,29.7999992371,13.9899997711
"2009-03-07 17:00:00",21.7900009155,0.0,107.199996948,66.4000015259,5.71999979019,2.79999995232,13.1700000763
"2009-03-07 18:00:00",23.4400005341,0.0,111.599998474,67.9000015259,5.69999980927,1160.0,13.1499996185
"2009-03-07 19:00:00",21.8899993896,0.0,113.5,67.8000030518,5.69000005722,24.7000007629,13.1000003815
"2009-03-07 20:00:00",20.5499992371,0.0,110.699996948,65.5999984741,5.71999979019,23.2000007629,13.0900001526
"2009-03-07 21:00:00",19.2299995422,0.0,103.599998474,64.6999969482,5.73000001907,18.2000007629,13.1199998856
"2009-03-07 22:00:00",17.4099998474,0.0,97.5,61.5999984741,5.78000020981,16.2999992371,12.9899997711
"2009-03-07 23:00:00",15.1700000763,0.0,93.9000015259,57.0,5.84999990463,1.0,12.9499998093
"2009-03-08 00:00:00",14.2700004578,0.0,106.800003052,55.2999992371,5.88000011444,0.899999976158,12.9200000763
"2009-03-08 01:00:00",13.3699998856,0.0,107.199996948,45.0999984741,6.05999994278,1.10000002384,12.8900003433
"2009-03-08 02:00:00",12.8699998856,0.0,106.900001526,43.0,6.09000015259,1.10000002384,12.8599996567
"2009-03-08 03:00:00",13.2299995422,0.0,106.599998474,43.7999992371,6.07999992371,1.10000002384,12.8299999237
"2009-03-08 04:00:00",12.4300003052,0.0,96.4000015259,43.2000007629,6.09000015259,1.5,12.8199996948
"2009-03-08 05:00:00",11.7700004578,0.0010000000475,99.9000015259,41.7999992371,6.11000013351,1.0,12.7899999619
"2009-03-08 06:00:00",11.1800003052,0.0010000000475,107.5,41.7000007629,6.11000013351,1.29999995232,12.779999733
"2009-03-08 07:00:00",10.6899995804,0.0010000000475,107.400001526,41.5,6.11000013351,3.59999990463,12.7700004578
"2009-03-08 08:00:00",10.3199996948,0.0010000000475,107.599998474,38.5999984741,6.15999984741,2.40000009537,12.75
"2009-03-08 09:00:00",9.82999992371,0.0010000000475,107.300003052,38.2000007629,6.17000007629,2.0,12.75
"2009-03-08 10:00:00",9.52000045776,0.0010000000475,108.300003052,35.0999984741,6.23000001907,3.5,12.7399997711
"2009-03-08 11:00:00",9.21000003815,0.0010000000475,108.599998474,35.2999992371,6.21999979019,1.89999997616,12.7399997711
"2009-03-08 12:00:00",9.63000011444,0.0010000000475,108.0,39.7000007629,6.13999986649,1.79999995232,12.75
"2009-03-08 13:00:00",12.3299999237,0.0010000000475,91.1999969482,39.9000015259,6.15000009537,52.4000015259,13.0200004578
"2009-03-08 14:00:00",15.9300003052,0.0,108.099998474,51.9000015259,5.94999980927,10.8000001907,13.4200000763
"2009-03-08 15:00:00",18.2299995422,0.0,112.699996948,57.5999984741,5.86000013351,11.0,13.279999733
"2009-03-08 16:00:00",21.7299995422,0.0,117.900001526,63.0,5.76999998093,13.1999998093,13.220000267
"2009-03-08 17:00:00",23.1700000763,0.0,120.0,67.0,5.71000003815,397.899993896,13.1499996185
"2009-03-08 18:00:00",24.7399997711,0.0,121.300003052,69.0999984741,5.67999982834,6.09999990463,13.1300001144
"2009-03-08 19:00:00",22.8899993896,0.0,110.900001526,73.1999969482,5.59999990463,0.600000023842,13.0799999237
"2009-03-08 20:00:00",21.5900001526,0.0,94.0,70.5,5.63999986649,0.800000011921,13.0699996948
"2009-03-08 21:00:00",20.6700000763,0.0,100.099998474,69.6999969482,5.65000009537,0.699999988079,13.1999998093
"2009-03-08 22:00:00",19.3099994659,0.0,101.0,66.5999984741,5.69999980927,0.899999976158,13.0
"2009-03-08 23:00:00",17.5300006866,0.0,103.099998474,61.7000007629,5.78000020981,0.899999976158,12.9499998093
"2009-03-09 00:00:00",15.5600004196,0.0,105.400001526,58.0999984741,5.84000015259,1.10000002384,12.8999996185
"2009-03-09 01:00:00",14.8199996948,0.0,105.5,55.0,5.88999986649,1.39999997616,12.8900003433
"2009-03-09 02:00:00",14.75,0.0,105.400001526,54.5999984741,5.88999986649,1.10000002384,12.8500003815
"2009-03-09 03:00:00",14.6999998093,0.0,105.199996948,53.9000015259,5.90999984741,1.20000004768,12.8299999237
"2009-03-09 04:00:00",14.7299995422,0.0,105.199996948,54.5,5.90000009537,1.0,12.8100004196
"2009-03-09 05:00:00",14.3500003815,0.0,105.599998474,52.9000015259,5.92000007629,2.20000004768,12.8000001907
"2009-03-09 06:00:00",13.7299995422,0.0,105.599998474,51.2999992371,5.94999980927,1.10000002384,12.779999733
"2009-03-09 07:00:00",13.2399997711,0.0,106.0,50.5,5.96000003815,1.10000002384,12.7700004578
"2009-03-09 08:00:00",13.5799999237,0.0,105.800003052,49.7999992371,5.98000001907,1.10000002384,12.7600002289
"2009-03-09 09:00:00",12.9899997711,0.0,106.099998474,49.7999992371,5.96999979019,1.29999995232,12.75
"2009-03-09 10:00:00",12.3199996948,0.0,106.400001526,46.9000015259,6.01999998093,1.5,12.7399997711
"2009-03-09 11:00:00",11.7399997711,0.0010000000475,107.099998474,47.5999984741,6.01000022888,1.20000004768,12.720000267
"2009-03-09 12:00:00",12.1700000763,0.0010000000475,106.300003052,45.5,6.05000019073,1.10000002384,12.7600002289
"2009-03-09 13:00:00",14.8699998856,0.0,104.099998474,50.7000007629,5.96000003815,1.29999995232,12.970000267
"2009-03-09 14:00:00",18.4899997711,0.0,100.300003052,59.2999992371,5.82999992371,0.899999976158,13.3699998856
"2009-03-09 15:00:00",16.4099998474,0.0,119.0,66.0,5.69999980927,15.8999996185,13.1499996185
"2009-03-09 16:00:00",22.1399993896,0.0,138.899993896,67.3000030518,5.69999980927,18.8999996185,13.1499996185
"2009-03-09 17:00:00",25.5499992371,0.0,97.8000030518,76.8000030518,5.55000019073,1.5,13.1300001144
"2009-03-09 18:00:00",26.7299995422,0.0,97.4000015259,87.5999984741,5.38000011444,0.5,13.1000003815
"2009-03-09 19:00:00",24.1900005341,0.0,100.5,90.1999969482,5.32000017166,0.600000023842,13.0699996948